Location: Gull Harbor
(47.1000°N, 122.9000°W)
Time: 10:07:02
(UTC-08:00)

N. Korean satellite - Pass Details

Date: 22 January 2018
Orbit: 459 x 514 km, 97.2° (Epoch: 24 February)

Event Time Altitude Azimuth Distance (km) Brightness Sun altitude
Rises 06:06:56 0° 27° (NNE) 2,496 10.4 -16.9°
Reaches altitude 10° 06:09:26 10° 46° (NE) 1,614 9.7 -16.5°
Maximum altitude 06:11:57 19° 93° (E) 1,171 9.5 -16.1°
Drops below altitude 10° 06:14:28 10° 140° (SE) 1,608 10.0 -15.7°
Sets 06:16:56 0° 159° (SSE) 2,481 10.7 -15.3°
